Location: Huberhof
(49.2050°N, 7.4980°E)
Time: 01:50:09
(UTC+00:00)

PSLV R/B - Visible Passes

Search period start: 27 February 2021 00:00
Search period end: 09 March 2021 00:00
Orbit: 567 x 598 km, 98.2° (Epoch: 26 February)

Date Brightness Start Highest point End Pass type
(mag) Time Alt. Az. Time Alt. Az. Time Alt. Az.
27 Feb 7.4 03:27:13 10° ENE 03:28:12 11° NE 03:29:11 10° NE visible
27 Feb 4.2 04:58:35 10° SSE 05:02:47 75° ENE 05:07:00 10° N visible
27 Feb 3.8 18:11:21 10° NNE 18:15:29 68° ESE 18:19:33 10° S visible
27 Feb 7.0 19:47:55 10° NNW 19:50:18 15° WNW 19:52:41 10° W visible
28 Feb 7.3 03:32:19 10° ENE 03:33:54 12° NE 03:35:29 10° NNE visible
28 Feb 4.0 05:04:21 10° SSE 05:08:34 85° ENE 05:12:47 10° NNW visible
28 Feb 3.8 18:17:07 10° NNE 18:21:15 78° ESE 18:25:19 10° S visible
28 Feb 7.1 19:53:57 10° NNW 19:56:01 14° WNW 19:58:04 10° W visible
01 Mar 7.2 03:37:35 10° E 03:39:36 13° ENE 03:41:37 10° NNE visible
01 Mar 3.9 05:10:07 10° SSE 05:14:20 85° WSW 05:18:33 10° NNW visible
01 Mar 3.9 18:22:53 10° NNE 18:27:01 89° ESE 18:31:06 10° SSW visible
01 Mar 7.2 20:00:03 10° NNW 20:01:43 12° WNW 20:03:21 10° W visible
02 Mar 7.1 03:42:58 10° E 03:45:18 15° ENE 03:47:38 10° NNE visible
02 Mar 3.9 05:15:54 10° S 05:20:06 75° WSW 05:24:19 10° NNW visible
02 Mar 4.0 18:28:40 10° NNE 18:32:47 81° WNW 18:36:51 10° SSW visible
02 Mar 7.3 20:06:19 10° NW 20:07:24 11° NW 20:08:28 10° WNW visible
03 Mar 7.0 03:48:23 10° E 03:51:00 16° ENE 03:53:37 10° NNE visible
03 Mar 4.0 05:21:43 10° S 05:25:52 65° WSW 05:30:03 10° NNW visible
03 Mar 4.2 18:34:27 10° N 18:38:33 71° WNW 18:42:35 10° SSW visible
04 Mar 6.9 03:53:51 10° ESE 03:56:42 18° ENE 03:59:34 10° NNE visible
04 Mar 4.0 05:27:32 10° S 05:31:40 57° W 05:35:48 10° NNW visible
04 Mar 4.4 18:40:14 10° N 18:44:18 62° WNW 18:48:18 10° SSW visible
05 Mar 6.7 03:59:21 10° ESE 04:02:25 20° ENE 04:05:29 10° NNE visible
05 Mar 4.7 18:46:02 10° N 18:50:03 54° WNW 18:54:00 10° SSW visible
06 Mar 6.6 04:04:53 10° ESE 04:08:08 22° ENE 04:11:23 10° NNE visible
06 Mar 5.0 18:51:50 10° N 18:55:47 47° WNW 18:59:41 10° SW visible
07 Mar 6.4 04:10:27 10° ESE 04:13:51 25° ENE 04:17:15 10° N visible
07 Mar 5.3 18:57:39 10° N 19:01:30 42° WNW 19:05:20 10° SW visible
08 Mar 6.2 04:16:02 10° ESE 04:19:34 27° ENE 04:23:07 10° N visible
08 Mar 5.5 19:03:28 10° N 19:07:15 37° WNW 19:10:58 10° SW visible
